Miscellaneous Local Product
Issued by NWS North Platte, NE

Home | Current Version | Previous Version | Text Only | Print | Product List | Glossary On
Versions: 1 2 3 4 5 6 7 8 9 10 11 12 13 14 15 16 17 18 19 20 21 22 23 24 25 26 27 28 29 30 31 32 33 34 35 36 37 38 39 40 41 42 43 44 45 46 47 48 49 50
765
AXUS43 KLBF 231410
MISLBF


WESTERN AND NORTH CENTRAL NEBRASKA HOURLY WEATHER ROUNDUP
NATIONAL WEATHER SERVICE NORTH PLATTE NE
900 AM CDT TUE MAY 23 2017

NOTE: "FAIR" INDICATES FEW OR NO CLOUDS BELOW 12,000 FEET WITH NO
SIGNIFICANT WEATHER AND/OR OBSTRUCTIONS TO VISIBILITY.

NOTE: STATIONS NOT REPORTING VARIABLES SUCH AS SKY/WEATHER OR
PRESSURE ARE PROVIDED BY RAWS AND APRS NETWORKS AND ARE NOT UNDER
NATIONAL WEATHER SERVICE QUALITY CONTROL.

...OBSERVATIONS IN AND NEAR THE EASTERN PANHANDLE OF NEBRASKA...

CITY           SKY/WX    TMP DP  RH WIND       PRES   REMARKS
PINE RIDGE     CLOUDY    48  43  82 NW7       30.14R
GORDON         PTSUNNY   50  41  70 N18       30.11S
CHADRON        CLOUDY    47  39  74 NW10      30.16R
ALLIANCE       CLOUDY    47  40  76 NW16      30.13R
SIDNEY         CLOUDY    47  41  80 NW15      30.16S
CRESCENT LAKE    N/A     46  41  83 NW13G20     N/A
$$

...OBSERVATIONS IN NORTHERN NEBRASKA AND FAR SOUTHERN SOUTH DAKOTA...

CITY           SKY/WX    TMP DP  RH WIND       PRES   REMARKS
WINNER         CLOUDY    50  41  71 N21G26    30.02R
VALENTINE      MOSUNNY   51  38  60 NW21G28   30.06R
THEDFORD       CLOUDY    51  43  72 N22G28    30.05S
AINSWORTH      CLOUDY    48  41  76 N18       30.03S
O`NEILL        CLOUDY    52  41  65 N17G28    29.97S
ORD            CLOUDY    53  44  71 NW17G25   29.96S
BROKEN BOW     CLOUDY    52  44  74 NW21G26   30.00R
HALSEY           N/A     50  43  78 NW9G20      N/A
BUTTE            N/A     46  42  86 NE13        N/A
CHAMBERS         N/A     54  44  67 N3          N/A
EWING            N/A     50  44  80 N13G20      N/A
$$

...OBSERVATIONS IN SOUTHWEST NEBRASKA AND FAR NORTHEAST COLORADO...

CITY           SKY/WX    TMP DP  RH WIND       PRES   REMARKS
WRAY           FAIR      52  37  58 NW18G24   30.14S
IMPERIAL       CLOUDY    48  39  71 NW16G24   30.11R
OGALLALA       CLOUDY    50  40  70 NW21      30.11S
NORTH PLATTE   CLOUDY    50  47  89 NW12      30.06S
MCCOOK         CLOUDY    51  44  77 NW16      30.06S
LEXINGTON      CLOUDY    50  45  82 NW16G22   30.02F
STAPLETON        N/A     50  44  79 NW3G13      N/A
GOTHENBURG       N/A     47  42  82 W5          N/A
CALLAWAY         N/A     46  44  91 NW13        N/A
$$

...OBSERVATIONS IN CENTRAL LINCOLN COUNTY AREA...

CITY           SKY/WX    TMP DP  RH WIND       PRES   REMARKS
N.P. AIRPORT   CLOUDY    50  47  89 NW12      30.06S
N.P. DOWNTOWN    N/A     51  45  81 NW7G15      N/A
N.P. SOUTHEAST   N/A     50  44  80 NW3G12      N/A
N.P. HILLCREST   N/A     51  45  81 NW16G25     N/A
$$

...SOME OBSERVATIONS FROM AROUND THE REGION...

CITY           SKY/WX    TMP DP  RH WIND       PRES   REMARKS
DENVER         MOSUNNY   45  34  65 NW8       30.22S
LIMON          SUNNY     46  37  71 N20G30    30.20S
ASPEN          CLOUDY    37  33  85 CALM      30.32S
LARAMIE        SUNNY     39  33  79 VRB5      30.25S
CASPER         MOSUNNY   45  39  79 SW10      30.25S
CHEYENNE       CLOUDY    41  33  73 NW16G25   30.23R
SCOTTSBLUFF    CLOUDY    46  40  79 W9        30.17S
GRAND ISLAND   CLOUDY    51  46  83 W14       29.97F
OMAHA          PTSUNNY   55  43  63 NW10      29.91F
SIOUX FALLS    LGT RAIN  48  46  93 N13       29.90R
PIERRE         LGT RAIN  50  40  68 N15       30.02S
RAPID CITY     PTSUNNY   51  37  58 N14       30.15R
BISMARCK       PTSUNNY   56  37  49 N24G31    30.08S
KANSAS CITY    CLOUDY    56  51  84 N12       29.90R
HILL CITY      SUNNY     53  45  74 NW10      30.06F
WICHITA        PTSUNNY   57  49  74 N17       29.97S
DODGE CITY     SUNNY     52  44  74 NW15      30.08R
OKLAHOMA CITY  CLOUDY    57  54  89 N23G30    29.95R
DALLAS         LGT RAIN  68  64  87 CALM      29.89R
AMARILLO       MOSUNNY   52  43  71 NW21G26   30.14R
$$




USA.gov is the U.S. government's official web portal to all federal, state and local government web resources and services.